| Date | Time | Temp. (oF) | Dew Point (oF) | Rel. Hum. (%) | Press. (in.) | Wind Dir. | Wind Speed (mph) | Hourly Rainfall (in.) |
|
|---|---|---|---|---|---|---|---|---|---|
| 1 | 12/30 | 00:00 | 43 | 39 | 88 | 29.58 | WNW | 7 | 0.00 |
| 2 | 12/29 | 23:00 | 43 | 40 | 90 | 29.55 | WNW | 11 | 0.00 |
| 3 | 12/29 | 22:00 | 43 | 40 | 91 | 29.52 | WNW | 7 | 0.01 |
| 4 | 12/29 | 21:00 | 44 | 42 | 93 | 29.50 | WNW | 7 | 0.00 |
| 5 | 12/29 | 20:00 | 44 | 42 | 96 | 29.48 | WNW | 11 | 0.00 |
| 6 | 12/29 | 19:00 | 44 | 44 | 100 | 29.46 | WNW | 6 | 0.00 |
| 7 | 12/29 | 18:00 | 43 | 42 | 100 | 29.44 | W | 5 | 0.02 |
| 8 | 12/29 | 17:00 | 43 | 42 | 100 | 29.42 | W | 6 | 0.02 |
| 9 | 12/29 | 16:00 | 43 | 42 | 100 | 29.40 | NW | 5 | 0.03 |
| 10 | 12/29 | 15:00 | 43 | 42 | 100 | 29.37 | WNW | 5 | 0.01 |
| 11 | 12/29 | 14:00 | 43 | 42 | 100 | 29.36 | W | 4 | 0.01 |
| 12 | 12/29 | 13:00 | 44 | 44 | 100 | 29.36 | W | 4 | 0.02 |
| 13 | 12/29 | 12:00 | 44 | 44 | 100 | 29.38 | NW | 4 | 0.00 |
| 14 | 12/29 | 11:00 | 44 | 44 | 100 | 29.41 | NNW | 2 | 0.01 |
| 15 | 12/29 | 10:00 | 44 | 44 | 100 | 29.44 | NNW | 1 | 0.01 |
| 16 | 12/29 | 09:00 | 44 | 44 | 100 | 29.44 | ENE | 2 | 0.05 |
| 17 | 12/29 | 08:00 | 44 | 43 | 99 | 29.45 | NE | 3 | 0.03 |
| 18 | 12/29 | 07:00 | 44 | 43 | 98 | 29.46 | ENE | 2 | 0.00 |
| 19 | 12/29 | 06:00 | 44 | 43 | 97 | 29.45 | ESE | 2 | 0.00 |
| 20 | 12/29 | 05:00 | 43 | 41 | 95 | 29.44 | NNE | 5 | 0.00 |
| 21 | 12/29 | 04:00 | 43 | 41 | 95 | 29.49 | ENE | 4 | 0.00 |
| 22 | 12/29 | 03:00 | 43 | 40 | 91 | 29.51 | NNE | 4 | 0.00 |
| 23 | 12/29 | 02:00 | 44 | 41 | 90 | 29.53 | ENE | 2 | 0.00 |
| 24 | 12/29 | 01:00 | 46 | 42 | 86 | 29.55 | SSW | 0 | 0.00 |